Weather History for Chapel Hill, NC

Change the Weather History Date:

Friday, April 12, 2013

  Actual Average Record
Temperature  
Mean Temperature 73 °F -  
Max Temperature 82 °F 71 °F 88 °F (1981)
Min Temperature 63 °F 42 °F 25 °F (1989)
Cooling Degree Days 8    
Growing Degree Days 23 (Base 50)    
Moisture  
Dew Point 61 °F    
Average Humidity 74    
Maximum Humidity 94    
Minimum Humidity 39    
Precipitation  
Precipitation 0.52 in - - ()
Sea Level Pressure  
Sea Level Pressure 29.71 in    
Wind  
Wind Speed 6 mph (SW)    
Max Wind Speed 10 mph    
Max Gust Speed 21 mph    
Visibility 7 miles    
Events Rain , Thunderstorm    
Averages and records for this station are not official NWS values.
T = Trace of Precipitation, MM = Missing Value Source: NWS Daily Summary

Daily Weather History Graph

Daily Weather History Graph

Search for Another Location

Airport:

Trip Planner

Search our weather history database for the weather conditions in past years. The results will help you decide how hot, cold, wet, or windy it might be!

Date:

Astronomy

Apr. 12, 2013 Rise Set
Actual Time 6:46 AM EDT 7:47 PM EDT
Civil Twilight 6:20 AM EDT 8:13 PM EDT
Nautical Twilight 5:49 AM EDT 8:45 PM EDT
Astronomical Twilight 5:17 AM EDT 9:17 PM EDT
Moon 7:59 AM EDT (4/12) 10:11 PM EDT (4/12)
Length of Visible Light 13h 53m
Length of Day
13h 00m
Waxing Crescent, 5% of the Moon is Illuminated
Apr 12
Waxing Crescent
Apr 18
First Quarter
Apr 25
Full
May 2
Last Quarter
May 9
New

Hourly Weather History & Observations

Time (EDT) Temp. Heat Index Dew Point Humidity Pressure Visibility Wind Dir Wind Speed Gust Speed Precip Events Conditions
12:09 AM 72.0 °F - 63.0 °F 73% 29.82 in 9.0 mi Variable 5.8 mph 19.6 mph N/A   Mostly Cloudy
12:48 AM 71.1 °F - 63.0 °F 75% 29.81 in 10.0 mi South 10.4 mph - N/A   Overcast
12:56 AM 71.1 °F - 63.0 °F 75% 29.79 in 10.0 mi SSE 8.1 mph - N/A   Mostly Cloudy
1:56 AM 71.1 °F - 63.0 °F 75% 29.77 in 10.0 mi South 10.4 mph 17.3 mph N/A   Overcast
2:56 AM 71.1 °F - 63.0 °F 75% 29.75 in 10.0 mi Variable 4.6 mph 18.4 mph N/A   Overcast
3:56 AM 71.1 °F - 63.0 °F 75% 29.72 in 10.0 mi SSE 9.2 mph 18.4 mph N/A   Overcast
4:22 AM 71.1 °F - 63.0 °F 75% 29.74 in 8.0 mi Variable 5.8 mph 19.6 mph 0.00 in Rain , Thunderstorm Light Rain
4:33 AM 69.1 °F - 64.0 °F 84% 29.73 in 2.5 mi Variable 6.9 mph - 0.07 in Rain Heavy Rain
4:41 AM 68.0 °F - 64.0 °F 87% 29.74 in 3.0 mi Variable 4.6 mph - 0.07 in Rain , Thunderstorm Light Thunderstorms and Rain
4:56 AM 68.0 °F - 64.9 °F 90% 29.73 in 4.0 mi Variable 4.6 mph - 0.10 in Rain , Thunderstorm Light Rain
5:04 AM 68.0 °F - 64.0 °F 87% 29.75 in 4.0 mi SSE 8.1 mph - 0.05 in Rain Rain
5:12 AM 68.0 °F - 64.9 °F 90% 29.74 in 2.0 mi Variable 5.8 mph - 0.09 in Rain Rain
5:21 AM 68.0 °F - 64.0 °F 87% 29.73 in 5.0 mi South 9.2 mph 20.7 mph 0.11 in Rain Rain
5:37 AM 68.0 °F - 64.9 °F 90% 29.72 in 8.0 mi Variable 4.6 mph - 0.12 in Rain Light Rain
5:56 AM 68.0 °F - 64.9 °F 90% 29.70 in 9.0 mi Variable 5.8 mph - 0.12 in Rain Light Rain
6:15 AM 66.9 °F - 64.9 °F 93% 29.74 in 2.5 mi North - - 0.07 in Rain Heavy Rain
6:21 AM 66.9 °F - 64.9 °F 93% 29.74 in 1.5 mi Variable 4.6 mph 17.3 mph 0.11 in Rain Heavy Rain
6:28 AM 66.9 °F - 64.9 °F 93% 29.73 in 2.0 mi Variable 5.8 mph - 0.14 in Rain Rain
6:32 AM 66.9 °F - 64.9 °F 93% 29.74 in 3.0 mi Variable 3.5 mph - 0.15 in Rain Light Rain
6:56 AM 66.9 °F - 64.0 °F 90% 29.71 in 4.0 mi Variable 4.6 mph - 0.21 in Rain Rain
7:53 AM 66.2 °F - 62.6 °F 88% 29.74 in 10.0 mi Variable 5.8 mph - 0.00 in   Mostly Cloudy
7:56 AM 66.0 °F - 63.0 °F 90% 29.72 in 10.0 mi Variable 5.8 mph - 0.00 in   Mostly Cloudy
8:13 AM 66.9 °F - 64.0 °F 90% 29.74 in 10.0 mi Variable 5.8 mph - N/A   Overcast
8:53 AM 66.2 °F - 64.4 °F 94% 29.73 in 2.5 mi Variable 5.8 mph - 0.04 in Rain Light Rain
8:56 AM 66.9 °F - 64.9 °F 93% 29.72 in 4.0 mi Variable 6.9 mph - 0.04 in Rain Light Rain
9:52 AM 69.8 °F - 66.2 °F 88% 29.72 in 10.0 mi Calm Calm - 0.00 in   Overcast
9:56 AM 70.0 °F - 66.0 °F 87% 29.71 in 10.0 mi Variable 5.8 mph - 0.00 in   Overcast
10:29 AM 71.1 °F - 64.9 °F 81% 29.73 in 10.0 mi Variable 3.5 mph - N/A   Overcast
10:56 AM 73.0 °F - 64.9 °F 76% 29.71 in 10.0 mi North - - N/A   Mostly Cloudy
11:11 AM 73.9 °F - 64.9 °F 73% 29.73 in 10.0 mi SSW 8.1 mph - N/A   Mostly Cloudy
11:27 AM 70.0 °F - 66.0 °F 87% 29.72 in 2.0 mi Variable 5.8 mph - 0.04 in Rain Light Rain
11:36 AM 70.0 °F - 64.9 °F 84% 29.72 in 6.0 mi WSW 8.1 mph - 0.04 in Rain Light Rain
11:56 AM 70.0 °F - 63.0 °F 78% 29.71 in 7.0 mi SW 9.2 mph - 0.04 in Rain Light Rain
12:56 PM 75.0 °F - 64.0 °F 69% 29.68 in 10.0 mi WSW 5.8 mph - 0.01 in   Overcast
1:56 PM 78.1 °F - 63.0 °F 60% 29.66 in 9.0 mi Calm Calm - N/A   Mostly Cloudy
2:56 PM 80.1 °F 80.9 °F 60.1 °F 50% 29.65 in 8.0 mi SSW 5.8 mph - N/A   Overcast
3:56 PM 80.1 °F 80.9 °F 60.1 °F 50% 29.62 in 9.0 mi Variable 4.6 mph 16.1 mph N/A   Mostly Cloudy
4:10 PM 81.0 °F 81.3 °F 59.0 °F 47% 29.63 in 5.0 mi Variable 6.9 mph - N/A   Haze
4:40 PM 82.0 °F 82.1 °F 59.0 °F 45% 29.62 in 8.0 mi Variable 6.9 mph - N/A   Overcast
4:56 PM 82.0 °F 81.7 °F 57.0 °F 42% 29.60 in 8.0 mi SW 9.2 mph 20.7 mph N/A   Mostly Cloudy
5:56 PM 81.0 °F 80.5 °F 54.0 °F 39% 29.60 in 9.0 mi SSW 9.2 mph - N/A   Mostly Cloudy
6:56 PM 79.0 °F - 55.0 °F 44% 29.61 in 10.0 mi Variable 3.5 mph - N/A   Mostly Cloudy
7:56 PM 73.9 °F - 55.9 °F 53% 29.64 in 10.0 mi Calm Calm - N/A   Clear
8:56 PM 71.1 °F - 53.1 °F 53% 29.68 in 10.0 mi West 3.5 mph - N/A   Clear
9:56 PM 66.0 °F - 50.0 °F 56% 29.70 in 10.0 mi Calm Calm - N/A   Clear
10:51 PM 64.4 °F - 46.4 °F 52% 29.75 in 5.0 mi NW 5.8 mph - N/A   Haze
10:56 PM 66.0 °F - 45.0 °F 47% 29.73 in 5.0 mi WNW 5.8 mph - N/A   Haze
11:56 PM 63.0 °F - 42.1 °F 46% 29.77 in 9.0 mi WNW 6.9 mph - N/A   Partly Cloudy